Perryton, Texas, United States (79070)
Lat: 36.40N, Lon: 100.8W
Wx Zone: TXZ004
Local Info
Past Weather Observations for Today

NOTE: This archive is for the closest National Weather Service station to Perryton. Information may differ from the station used for current weather conditions.

Click here for Long-term Archive

Time Weather Temperature Dewpoint Humidity Pressure Winds Precip Visibility
12:55
Clear
77°F / 25°C 68°F / 20°C 74% 30.21 in
(1023 mb)
NNE 10.4 mph
(NNE 17 kph)
- 10SM
12:35
Clear
75°F / 24°C 68°F / 20°C 78% 30.21 in
(1023 mb)
N 9.2 mph
(N 15 kph)
- 10SM
12:15
Partly Cloudy
75°F / 24°C 68°F / 20°C 78% 30.24 in
(1024 mb)
N 12.7 mph
(N 20 kph)
- 10SM
11:55
Mostly Cloudy
Thunder Storms
75°F / 24°C 68°F / 20°C 78% 30.24 in
(1024 mb)
NW 8.1 mph
(NW 13 kph)
- 10SM
11:35
Mostly Cloudy
Thunder Storms
73°F / 23°C 68°F / 20°C 83% 30.24 in
(1024 mb)
NW 13.8 mph
(NW 22 kph)
- 10SM
11:15
Overcast
Thunder Storms
75°F / 24°C 70°F / 21°C 83% 30.27 in
(1025 mb)
NNW 18.4 mph
(NNW 30 kph)
- 10SM
10:55
Overcast
Thunder Storms
75°F / 24°C 68°F / 20°C 78% 30.27 in
(1025 mb)
NW 19.6 mph
(NW 32 kph)
- 10SM
10:35
Overcast
Thunder Storms
79°F / 26°C 72°F / 22°C 79% 30.24 in
(1024 mb)
SSW 17.3 mph
(SSW 28 kph)
- 10SM
10:15
Overcast
Thunder Storms
81°F / 27°C 73°F / 23°C 79% 30.24 in
(1024 mb)
W 11.5 mph
(W 19 kph)
- 10SM
09:55
Mostly Cloudy
82°F / 28°C 73°F / 23°C 74% 30.24 in
(1024 mb)
SSW 8.1 mph
(SSW 13 kph)
- 10SM
09:35
Partly Cloudy
81°F / 27°C 73°F / 23°C 79% 30.21 in
(1023 mb)
SSW 4.6 mph
(SSW 7 kph)
- 10SM
09:15
Partly Cloudy
79°F / 26°C 73°F / 23°C 84% 30.21 in
(1023 mb)
W 3.5 mph
(W 6 kph)
- 10SM
08:55
Mostly Cloudy
77°F / 25°C 72°F / 22°C 83% 30.21 in
(1023 mb)
Calm - 10SM
08:35
Mostly Cloudy
75°F / 24°C 72°F / 22°C 89% 30.21 in
(1023 mb)
Calm - 10SM
08:15
Mostly Cloudy
75°F / 24°C 72°F / 22°C 89% 30.21 in
(1023 mb)
Calm - 10SM
07:55
Partly Cloudy
73°F / 23°C 72°F / 22°C 94% 30.21 in
(1023 mb)
Calm - 10SM
07:35
Clear
73°F / 23°C 72°F / 22°C 94% 30.21 in
(1023 mb)
Calm - 7SM
07:15
Clear
Fog And Mist
72°F / 22°C 70°F / 21°C 94% 30.21 in
(1023 mb)
Calm - 5SM
06:55
Clear
Fog And Mist
72°F / 22°C 70°F / 21°C 94% 30.21 in
(1023 mb)
Calm - 5SM
06:35
Clear
Fog And Mist
72°F / 22°C 70°F / 21°C 94% 30.21 in
(1023 mb)
Calm - 4SM
06:15
Clear
Fog And Mist
72°F / 22°C 70°F / 21°C 94% 30.21 in
(1023 mb)
Calm - 4SM
05:55
Clear
72°F / 22°C 70°F / 21°C 94% 30.21 in
(1023 mb)
Calm - 7SM
05:35
Clear
72°F / 22°C 70°F / 21°C 94% 30.18 in
(1022 mb)
Calm - 10SM
05:15
Clear
72°F / 22°C 70°F / 21°C 94% 30.18 in
(1022 mb)
Calm - 10SM
04:55
Partly Cloudy
72°F / 22°C 70°F / 21°C 94% 30.18 in
(1022 mb)
Calm - 10SM
04:35
Mostly Cloudy
72°F / 22°C 70°F / 21°C 94% 30.18 in
(1022 mb)
Calm - 10SM
04:15
Overcast
72°F / 22°C 70°F / 21°C 94% 30.18 in
(1022 mb)
Calm - 10SM
03:55
Overcast
72°F / 22°C 70°F / 21°C 94% 30.18 in
(1022 mb)
Calm - 10SM
03:35
Mostly Cloudy
72°F / 22°C 70°F / 21°C 94% 30.18 in
(1022 mb)
Calm - 10SM
03:15
Clear
72°F / 22°C 70°F / 21°C 94% 30.18 in
(1022 mb)
Calm - 7SM
02:55
Clear
72°F / 22°C 70°F / 21°C 94% 30.18 in
(1022 mb)
Calm - 7SM
02:35
Clear
72°F / 22°C 70°F / 21°C 94% 30.18 in
(1022 mb)
Calm - 7SM
02:15
Clear
Fog And Mist
72°F / 22°C 70°F / 21°C 94% 30.18 in
(1022 mb)
Calm - 5SM
01:55
Clear
Fog And Mist
72°F / 22°C 70°F / 21°C 94% 30.21 in
(1023 mb)
Calm - 5SM
01:35
Clear
72°F / 22°C 72°F / 22°C 100% 30.21 in
(1023 mb)
Calm - 7SM
01:15
Clear
72°F / 22°C 72°F / 22°C 100% 30.21 in
(1023 mb)
Calm - 7SM
00:55
Partly Cloudy
73°F / 23°C 72°F / 22°C 94% 30.21 in
(1023 mb)
Calm - 7SM
00:35
Partly Cloudy
73°F / 23°C 72°F / 22°C 94% 30.21 in
(1023 mb)
E 3.5 mph
(E 6 kph)
- 7SM
00:15
Clear
73°F / 23°C 72°F / 22°C 94% 30.21 in
(1023 mb)
ESE 5.8 mph
(ESE 9 kph)
- 10SM
Time Weather Temperature Dewpoint Humidity Pressure Winds Precip Visibility


Weather for websites

WeatherForYou.com, LLC is not responsible for any damages or problems caused by this service. Current weather conditions are obtained from the closest station including government and personal stations which may have varying degrees of accuracy. Weather forecasts are derived from the NOAA NDFD. Like all things, this site belongs to Jesus Christ... He just trusts us to maintain it. If you have any questions or comments email webmaster@weatherforyou.com

Copyright © 2015, WeatherForYou.com LLC. All rights reserved.